VKG4064 ESSA-VTSP

Flight info

Callsign VKG4064
Flight time N/A
Altitude 31000
Route BABAP T316 NEPVA DCT OLANU/N0469F340 DCT PENOR/N0473F330 N133 KARTI DCT NASOK DCT ADOXO DCT POLON DCT GOSAK N133 LENOV DCT KARIL DCT UDROS/N0475F350 UM859 KARDE UL851 TBN UR317 REBLO P130 MAMED B449 DOLOS B475 RUBAD/N0483F370 A846 RANAH L750 ZB G202 RK P628 IBANI L510 GURVI T1 OPONI/N0476F390 T1 BBS L759 SATVA SATVA1C
Aircraft A339/H-SADE1E2E3GHIJ3J5M1P2RWXY/LB2D1

Departure

Time 2026-05-01 10:54
Airport Stockholm-Arlanda Airport (ESSA)

Arrival

Time N/A
Airport Phuket International Airport (VTSP)
Time Latitude Longitude Altitude Speed Heading
2026-05-01 10:37 59.65335 17.92887 118 ft 0 kts 102°
2026-05-01 10:45 59.65338 17.92862 113 ft 4 kts 96°
2026-05-01 10:46 59.65340 17.92813 113 ft 4 kts 72°
2026-05-01 10:46 59.65333 17.92772 117 ft 4 kts 30°
2026-05-01 10:46 59.65321 17.92754 113 ft 3 kts 334°
2026-05-01 10:46 59.65317 17.92756 113 ft 0 kts 329°
2026-05-01 10:48 59.65318 17.92754 113 ft 2 kts 329°
2026-05-01 10:48 59.65344 17.92723 113 ft 6 kts 329°
2026-05-01 10:48 59.65379 17.92685 114 ft 6 kts 331°
2026-05-01 10:48 59.65418 17.92643 112 ft 8 kts 331°
2026-05-01 10:49 59.65475 17.92581 111 ft 11 kts 331°
2026-05-01 10:49 59.65556 17.92525 110 ft 13 kts 349°
2026-05-01 10:49 59.65645 17.92472 108 ft 14 kts 343°
2026-05-01 10:49 59.65734 17.92429 110 ft 12 kts 347°
2026-05-01 10:50 59.65812 17.92438 109 ft 11 kts
2026-05-01 10:50 59.65898 17.92469 112 ft 13 kts 10°
2026-05-01 10:50 59.66000 17.92505 112 ft 16 kts 10°
2026-05-01 10:50 59.66107 17.92544 116 ft 15 kts 10°
2026-05-01 10:51 59.66201 17.92579 117 ft 13 kts 10°
2026-05-01 10:51 59.66278 17.92607 122 ft 10 kts 10°
2026-05-01 10:51 59.66336 17.92628 121 ft 7 kts 10°
2026-05-01 10:51 59.66397 17.92651 123 ft 14 kts 10°
2026-05-01 10:52 59.66495 17.92635 125 ft 13 kts 341°
2026-05-01 10:52 59.66576 17.92569 125 ft 12 kts 338°
2026-05-01 10:52 59.66619 17.92464 127 ft 9 kts 279°
2026-05-01 10:52 59.66591 17.92369 127 ft 7 kts 208°
2026-05-01 10:53 59.66495 17.92327 125 ft 37 kts 190°
2026-05-01 10:53 59.65998 17.92140 120 ft 107 kts 191°
2026-05-01 10:53 59.65087 17.91815 113 ft 161 kts 190°
2026-05-01 10:53 59.63914 17.91378 537 ft 170 kts 193°
2026-05-01 10:54 59.62737 17.90907 1105 ft 176 kts 195°
2026-05-01 10:54 59.61519 17.90471 1726 ft 179 kts 190°
2026-05-01 10:54 59.60242 17.90312 2175 ft 192 kts 186°
2026-05-01 10:54 59.58842 17.90247 2449 ft 211 kts 185°
2026-05-01 10:55 59.57307 17.90303 2702 ft 233 kts 172°
2026-05-01 10:55 59.55830 17.91573 3470 ft 228 kts 148°
2026-05-01 10:55 59.54453 17.93230 3928 ft 240 kts 154°
2026-05-01 10:55 59.52905 17.94810 4148 ft 261 kts 156°
2026-05-01 10:56 59.51242 17.96436 4348 ft 279 kts 155°
2026-05-01 10:56 59.49475 17.98203 4830 ft 288 kts 154°
2026-05-01 10:56 59.47695 18.00039 5444 ft 290 kts 154°
2026-05-01 10:56 59.45914 18.01906 5998 ft 291 kts 154°
2026-05-01 10:57 59.44113 18.03795 6471 ft 295 kts 154°
2026-05-01 10:57 59.42300 18.05706 6989 ft 297 kts 154°
2026-05-01 10:57 59.40476 18.07610 7474 ft 297 kts 157°
2026-05-01 10:57 59.38509 18.08725 7944 ft 293 kts 180°
2026-05-01 10:58 59.36500 18.08476 8425 ft 289 kts 192°
2026-05-01 10:58 59.34528 18.07941 8927 ft 291 kts 193°
2026-05-01 10:58 59.32524 18.07360 9468 ft 292 kts 193°
2026-05-01 10:58 59.30508 18.06781 9989 ft 294 kts 193°
2026-05-01 10:59 59.28471 18.06208 10391 ft 300 kts 193°
2026-05-01 10:59 59.26349 18.05612 10523 ft 316 kts 193°
2026-05-01 10:59 59.24120 18.04991 10649 ft 331 kts 193°
2026-05-01 10:59 59.21796 18.04355 10815 ft 344 kts 192°
2026-05-01 11:00 59.19404 18.03711 11160 ft 349 kts 192°
2026-05-01 11:00 59.17019 18.03072 11594 ft 352 kts 192°
2026-05-01 11:00 59.14578 18.02416 12020 ft 356 kts 192°
2026-05-01 11:00 59.12118 18.01754 12455 ft 359 kts 192°
2026-05-01 11:01 59.09630 18.01081 12889 ft 362 kts 193°
2026-05-01 11:01 59.07129 18.00406 13320 ft 365 kts 193°
2026-05-01 11:01 59.04601 17.99727 13727 ft 369 kts 193°
2026-05-01 11:01 59.02053 17.99044 14149 ft 371 kts 193°
2026-05-01 11:02 58.99486 17.98356 14550 ft 373 kts 193°
2026-05-01 11:02 58.96940 17.97675 14949 ft 375 kts 193°
2026-05-01 11:02 58.94344 17.96980 15349 ft 377 kts 193°
2026-05-01 11:02 58.91739 17.96282 15760 ft 379 kts 193°
2026-05-01 11:03 58.89111 17.95578 16118 ft 383 kts 193°
2026-05-01 11:03 58.86468 17.94872 16519 ft 385 kts 193°
2026-05-01 11:03 58.83812 17.94165 16912 ft 387 kts 193°
2026-05-01 11:03 58.81139 17.93455 17302 ft 389 kts 192°
2026-05-01 11:04 58.78453 17.92741 17698 ft 391 kts 193°
2026-05-01 11:04 58.75786 17.92034 18080 ft 393 kts 192°
2026-05-01 11:04 58.73054 17.91300 18314 ft 400 kts 192°
2026-05-01 11:04 58.70294 17.90566 18693 ft 402 kts 192°
2026-05-01 11:05 58.67523 17.89841 19065 ft 403 kts 192°
2026-05-01 11:05 58.64738 17.89113 19412 ft 405 kts 192°
2026-05-01 11:05 58.61941 17.88378 19735 ft 407 kts 192°
2026-05-01 11:05 58.59133 17.87642 20094 ft 408 kts 191°
2026-05-01 11:06 58.56345 17.86912 20460 ft 410 kts 191°
2026-05-01 11:06 58.53513 17.86171 20817 ft 412 kts 191°
2026-05-01 11:06 58.50667 17.85427 21157 ft 414 kts 191°
2026-05-01 11:07 58.44935 17.83932 21890 ft 418 kts 191°
2026-05-01 11:07 58.42049 17.83181 22239 ft 419 kts 191°
2026-05-01 11:07 58.39152 17.82428 22598 ft 421 kts 191°
2026-05-01 11:07 58.36241 17.81673 22957 ft 423 kts 191°
2026-05-01 11:08 58.33310 17.80911 23268 ft 427 kts 190°
2026-05-01 11:08 58.30402 17.80159 23629 ft 428 kts 190°
2026-05-01 11:08 58.24472 17.78633 24275 ft 432 kts 190°
2026-05-01 11:09 58.21489 17.77867 24581 ft 433 kts 190°
2026-05-01 11:09 58.18495 17.77098 24886 ft 435 kts 190°
2026-05-01 11:09 58.15490 17.76328 25185 ft 437 kts 190°
2026-05-01 11:10 58.09440 17.74782 25787 ft 440 kts 190°
2026-05-01 11:10 58.06435 17.74014 26064 ft 442 kts 189°
2026-05-01 11:10 58.03381 17.73235 26350 ft 444 kts 189°
2026-05-01 11:10 58.00317 17.72456 26660 ft 446 kts 189°
2026-05-01 11:11 57.97237 17.71675 26945 ft 447 kts 189°
2026-05-01 11:11 57.94142 17.70892 27223 ft 449 kts 189°
2026-05-01 11:11 57.91041 17.70108 27511 ft 451 kts 189°
2026-05-01 11:11 57.87927 17.69322 27787 ft 453 kts 189°
2026-05-01 11:12 57.84798 17.68534 28064 ft 454 kts 189°
2026-05-01 11:12 57.81701 17.67755 28321 ft 456 kts 189°
2026-05-01 11:12 57.78550 17.66963 28575 ft 458 kts 189°
2026-05-01 11:12 57.75387 17.66168 28803 ft 460 kts 189°
2026-05-01 11:13 57.72209 17.65372 29076 ft 461 kts 189°
2026-05-01 11:13 57.69018 17.64576 29332 ft 463 kts 189°
2026-05-01 11:13 57.65822 17.63780 29583 ft 465 kts 189°
2026-05-01 11:13 57.62610 17.62981 29816 ft 466 kts 189°
2026-05-01 11:14 57.59383 17.62179 30070 ft 468 kts 189°
2026-05-01 11:14 57.56192 17.61388 30317 ft 470 kts 189°
2026-05-01 11:14 57.52946 17.60585 30535 ft 471 kts 189°
2026-05-01 11:14 57.49691 17.59780 30752 ft 473 kts 189°
2026-05-01 11:15 57.46428 17.58976 30962 ft 475 kts 189°
2026-05-01 11:15 57.43146 17.58168 31186 ft 476 kts 189°
2026-05-01 11:15 57.36503 17.56536 31274 ft 488 kts 189°